Houston, TX

5:44 PM CST on November 16, 2019 (GMT -0600)
Houston

Weather History for KTME - October, 2019

Change the Weather History Date:

Wednesday, October 23, 2019

  Actual Average (WUND) Record (WUND)
Temperature  
Mean Temperature 66 °F -  
Max Temperature 82 °F - - (-1)
Min Temperature 51 °F - - (-1)
Cooling Degree Days 2    
Growing Degree Days 16 (Base 50)    
Moisture  
Dew Point 54 °F    
Average Humidity 66    
Maximum Humidity 94    
Minimum Humidity 37    
Precipitation  
Precipitation 0.00 in - - ()
Sea Level Pressure  
Sea Level Pressure 30.08 in    
Wind  
Wind Speed 6 mph ()    
Max Wind Speed 18 mph    
Max Gust Speed 24 mph    
Visibility 10.0 miles    
Events      
Averages and records for this station are not official NWS values.
T = Trace of Precipitation, MM = Missing Value Source: Averaged Metar Reports

Daily Weather History Graph

Daily Weather History Graph

Search for Another Location

Airport or City:

Astronomy

Oct. 23, 2019 Rise Set
Actual Time 7:30 AM CDT 6:44 PM CDT
Civil Twilight 7:06 AM CDT 7:09 PM CDT
Nautical Twilight 6:38 AM CDT 7:37 PM CDT
Astronomical Twilight 6:10 AM CDT 8:04 PM CDT
Moon 2:22 AM CDT (10/23) 4:07 PM CDT (10/23)
Length of Visible Light 12h 02m
Length of Day
11h 14m
Waning Crescent, 26% of the Moon is Illuminated
Oct 23
Waning Crescent
Oct 27
New
Nov 4
First Quarter
Nov 12
Full
Nov 19
Last Quarter

Hourly Weather History & Observations

Time (CDT) Temp. Heat Index Dew Point Humidity Pressure Visibility Wind Dir Wind Speed Gust Speed Precip Events Conditions
12:15 AM 59.0 °F - 46.4 °F 63% 30.14 in 10.0 mi Calm Calm - N/A   Clear
12:35 AM 55.4 °F - 46.4 °F 72% 30.14 in 10.0 mi Calm Calm - N/A   Clear
12:55 AM 55.4 °F - 46.4 °F 72% 30.14 in 10.0 mi Calm Calm - N/A   Clear
1:15 AM 55.4 °F - 46.4 °F 72% 30.14 in 10.0 mi Calm Calm - N/A   Clear
1:35 AM 53.6 °F - 46.4 °F 77% 30.14 in 10.0 mi Calm Calm - N/A   Clear
1:55 AM 53.6 °F - 46.4 °F 77% 30.14 in 10.0 mi Calm Calm - N/A   Clear
2:35 AM 53.6 °F - 48.2 °F 82% 30.13 in 10.0 mi Calm Calm - N/A   Clear
2:55 AM 53.6 °F - 48.2 °F 82% 30.13 in 10.0 mi NNE 3.5 mph - N/A   Clear
3:15 AM 53.6 °F - 48.2 °F 82% 30.12 in 10.0 mi NE 3.5 mph - N/A   Clear
3:35 AM 53.6 °F - 48.2 °F 82% 30.12 in 10.0 mi NNE 3.5 mph - N/A   Clear
3:55 AM 51.8 °F - 48.2 °F 88% 30.12 in 10.0 mi NNE 3.5 mph - N/A   Scattered Clouds
4:15 AM 51.8 °F - 48.2 °F 88% 30.12 in 10.0 mi NNE 4.6 mph - N/A   Mostly Cloudy
4:35 AM 51.8 °F - 48.2 °F 88% 30.11 in 10.0 mi NE 3.5 mph - N/A   Mostly Cloudy
4:55 AM 53.6 °F - 48.2 °F 82% 30.12 in 10.0 mi Calm Calm - N/A   Mostly Cloudy
5:15 AM 51.8 °F - 48.2 °F 88% 30.12 in 10.0 mi ENE 3.5 mph - N/A   Partly Cloudy
5:35 AM 51.8 °F - 48.2 °F 88% 30.11 in 10.0 mi ENE 3.5 mph - N/A   Scattered Clouds
5:55 AM 51.8 °F - 48.2 °F 88% 30.11 in 10.0 mi ENE 4.6 mph - N/A   Mostly Cloudy
6:15 AM 51.8 °F - 50.0 °F 94% 30.12 in 10.0 mi Calm Calm - N/A   Scattered Clouds
6:35 AM 53.6 °F - 48.2 °F 82% 30.11 in 10.0 mi Calm Calm - N/A   Clear
6:55 AM 53.6 °F - 48.2 °F 82% 30.11 in 10.0 mi Calm Calm - N/A   Mostly Cloudy
7:15 AM 51.8 °F - 48.2 °F 88% 30.11 in 10.0 mi ENE 4.6 mph - N/A   Scattered Clouds
7:35 AM 51.8 °F - 50.0 °F 94% 30.11 in 10.0 mi East 4.6 mph - N/A   Partly Cloudy
7:55 AM 53.6 °F - 50.0 °F 88% 30.11 in 10.0 mi East 4.6 mph - N/A   Clear
8:15 AM 55.4 °F - 53.6 °F 94% 30.12 in 10.0 mi Calm Calm - N/A   Clear
8:35 AM 59.0 °F - 55.4 °F 88% 30.12 in 10.0 mi Calm Calm - N/A   Clear
8:55 AM 60.8 °F - 55.4 °F 82% 30.13 in 10.0 mi East 3.5 mph - N/A   Clear
9:15 AM 62.6 °F - 57.2 °F 82% 30.14 in 10.0 mi East 3.5 mph - N/A   Clear
9:35 AM 66.2 °F - 59.0 °F 78% 30.14 in 10.0 mi East 5.8 mph - N/A   Clear
9:55 AM 69.8 °F - 59.0 °F 68% 30.14 in 10.0 mi ESE 5.8 mph - N/A   Clear
10:15 AM 73.4 °F - 57.2 °F 57% 30.14 in 10.0 mi SE 9.2 mph 16.1 mph N/A   Clear
10:35 AM 75.2 °F - 55.4 °F 50% 30.13 in 10.0 mi SE 12.7 mph - N/A   Clear
10:55 AM 75.2 °F - 55.4 °F 50% 30.13 in 10.0 mi SE 12.7 mph 19.6 mph N/A   Clear
11:35 AM 78.8 °F - 55.4 °F 44% 30.13 in 10.0 mi SSE 15.0 mph 23.0 mph N/A   Clear
11:55 AM 80.6 °F 80.5 °F 55.4 °F 42% 30.12 in 10.0 mi SSE 13.8 mph - N/A   Clear
12:15 PM 80.6 °F 80.5 °F 55.4 °F 42% 30.12 in 10.0 mi SSE 15.0 mph 20.7 mph N/A   Clear
12:35 PM 80.6 °F 80.5 °F 55.4 °F 42% 30.11 in 10.0 mi SE 17.3 mph - N/A   Clear
12:55 PM 80.6 °F 80.3 °F 53.6 °F 39% 30.10 in 10.0 mi SE 18.4 mph 24.2 mph N/A   Clear
1:15 PM 82.4 °F 81.4 °F 53.6 °F 37% 30.09 in 9.0 mi SSE 17.3 mph - N/A   Clear
1:35 PM 80.6 °F 80.3 °F 53.6 °F 39% 30.08 in 10.0 mi SSE 15.0 mph 24.2 mph N/A   Clear
1:55 PM 80.6 °F 80.3 °F 53.6 °F 39% 30.07 in 10.0 mi SSE 17.3 mph 24.2 mph N/A   Clear
2:15 PM 82.4 °F 81.7 °F 55.4 °F 39% 30.06 in 10.0 mi SSE 15.0 mph 23.0 mph N/A   Clear
2:35 PM 82.4 °F 81.7 °F 55.4 °F 39% 30.05 in 10.0 mi SE 16.1 mph - N/A   Clear
2:55 PM 82.4 °F 81.7 °F 55.4 °F 39% 30.04 in 10.0 mi SE 17.3 mph 24.2 mph N/A   Clear
3:15 PM 82.4 °F 81.7 °F 55.4 °F 39% 30.04 in 10.0 mi SE 17.3 mph 23.0 mph N/A   Clear
3:35 PM 82.4 °F 81.7 °F 55.4 °F 39% 30.03 in 10.0 mi SE 16.1 mph - N/A   Clear
3:55 PM 82.4 °F 81.7 °F 55.4 °F 39% 30.02 in 10.0 mi SSE 15.0 mph 21.9 mph N/A   Clear
4:15 PM 80.6 °F 80.5 °F 55.4 °F 42% 30.02 in 10.0 mi SE 12.7 mph 21.9 mph N/A   Clear
4:35 PM 80.6 °F 80.3 °F 53.6 °F 39% 30.02 in 10.0 mi SSE 17.3 mph 23.0 mph N/A   Clear
4:55 PM 80.6 °F 80.5 °F 55.4 °F 42% 30.02 in 10.0 mi SE 15.0 mph 21.9 mph N/A   Clear
5:15 PM 78.8 °F - 55.4 °F 44% 30.02 in 10.0 mi SSE 18.4 mph - N/A   Clear
5:35 PM 78.8 °F - 55.4 °F 44% 30.02 in 10.0 mi SSE 13.8 mph - N/A   Clear
5:55 PM 77.0 °F - 55.4 °F 47% 30.02 in 10.0 mi SE 15.0 mph 21.9 mph N/A   Clear
6:15 PM 77.0 °F - 57.2 °F 50% 30.02 in 10.0 mi SSE 15.0 mph 24.2 mph N/A   Clear
6:35 PM 75.2 °F - 57.2 °F 53% 30.02 in 10.0 mi SSE 17.3 mph 23.0 mph N/A   Clear
6:55 PM 73.4 °F - 57.2 °F 57% 30.03 in 10.0 mi SSE 15.0 mph 20.7 mph N/A   Clear
7:15 PM 73.4 °F - 57.2 °F 57% 30.03 in 10.0 mi SE 12.7 mph - N/A   Partly Cloudy
7:35 PM 73.4 °F - 57.2 °F 57% 30.04 in 10.0 mi SE 11.5 mph - N/A   Partly Cloudy
7:55 PM 71.6 °F - 57.2 °F 60% 30.04 in 10.0 mi SE 10.4 mph - N/A   Scattered Clouds
8:15 PM 71.6 °F - 59.0 °F 64% 30.04 in 10.0 mi ESE 9.2 mph - N/A   Mostly Cloudy
8:35 PM 69.8 °F - 59.0 °F 68% 30.05 in 10.0 mi SE 8.1 mph - N/A   Overcast
8:55 PM 69.8 °F - 59.0 °F 68% 30.05 in 10.0 mi ESE 9.2 mph - N/A   Mostly Cloudy
9:15 PM 68.0 °F - 59.0 °F 73% 30.05 in 10.0 mi SE 8.1 mph - N/A   Mostly Cloudy
9:35 PM 68.0 °F - 59.0 °F 73% 30.05 in 10.0 mi ESE 6.9 mph - N/A   Scattered Clouds
9:55 PM 66.2 °F - 59.0 °F 78% 30.05 in 10.0 mi ESE 6.9 mph - N/A   Partly Cloudy
10:15 PM 68.0 °F - 59.0 °F 73% 30.05 in 10.0 mi ESE 8.1 mph - N/A   Clear
10:35 PM 66.2 °F - 59.0 °F 78% 30.05 in 10.0 mi ESE 8.1 mph - N/A   Clear
10:55 PM 68.0 °F - 60.8 °F 78% 30.05 in 10.0 mi SE 9.2 mph - N/A   Clear
11:15 PM 68.0 °F - 60.8 °F 78% 30.05 in 10.0 mi ESE 8.1 mph - N/A   Scattered Clouds
11:35 PM 66.2 °F - 60.8 °F 83% 30.04 in 10.0 mi ESE 8.1 mph - N/A   Mostly Cloudy
11:55 PM 66.2 °F - 60.8 °F 83% 30.04 in 10.0 mi ESE 6.9 mph - N/A   Overcast